Regional Weather Roundup
Issued by NWS

Home | Current Version | Previous Version | Graphics & Text | Print | Product List | Glossary Off
Versions: 1 2 3 4 5 6 7 8 9 10 11 12 13 14 15 16 17 18 19 20 21 22 23 24 25 26 27 28 29 30 31 32 33 34 35 36 37 38 39 40 41 42 43 44 45 46 47 48 49 50

189
ASUS43 KTOP 062359
RWRKS

WEATHER ROUNDUP FOR KANSAS
NATIONAL WEATHER SERVICE GOODLAND KS
700 PM CDT FRI MAY 06 2016

NOTE:  "FAIR" INDICATES FEW OR NO CLOUDS BELOW 12,000 FEET WITH NO
SIGNIFICANT WEATHER AND/OR OBSTRUCTIONS TO VISIBILITY.

KSZ001>006-013>018-027>032-041>047-070100-
NORTHWEST KANSAS

CITY           SKY/WX    TMP DP  RH WIND       PRES   REMARKS
GOODLAND       SUNNY     83  34  17 S22G28    29.85S
6HR MIN TEMP:  81; 6HR MAX TEMP:  87;

HAYS           MOSUNNY   81  52  36 S16G24    29.88S
HILL CITY      SUNNY     85  45  24 S14G23    29.86S
6HR MIN TEMP:  82; 6HR MAX TEMP:  89;

RUSSELL        MOSUNNY   81  51  35 S16       29.87F
6HR MIN TEMP:  81; 6HR MAX TEMP:  86;

$$

KSZ061>065-074>080-084>089-070100-
SOUTHWEST KANSAS

CITY           SKY/WX    TMP DP  RH WIND       PRES   REMARKS
DODGE CITY     SUNNY     79  49  34 S20       29.92S
6HR MIN TEMP:  77; 6HR MAX TEMP:  82;

ELKHART          N/A     82  43  25 S18         N/A
GARDEN CITY    SUNNY     81  46  29 S17G25    29.90S
6HR MIN TEMP:  79; 6HR MAX TEMP:  84;

GREAT BEND     MOSUNNY   81  52  36 S21       29.89F
LIBERAL        SUNNY     81  48  32 S21G26    29.93S
$$

KSZ066>073-081>083-090>101-070100-
SOUTHEAST KANSAS

CITY           SKY/WX    TMP DP  RH WIND       PRES   REMARKS
CHANUTE        CLOUDY    77  51  40 S12       29.98F
6HR MIN TEMP:  76; 6HR MAX TEMP:  80;

COFFEYVILLE    SUNNY     77  50  38 S9        29.98F
6HR MIN TEMP:  76; 6HR MAX TEMP:  80;

HUTCHINSON     CLOUDY    79  50  36 S15       29.93F
6HR MIN TEMP:  79; 6HR MAX TEMP:  84;

MEDICINE LODGE   N/A     81  49  32 S12G20    29.92F
NEWTON         SUNNY     79  43  27 S14       29.97F
PARSONS        MOSUNNY   77  51  40 S7        29.99F
6HR MIN TEMP:  75; 6HR MAX TEMP:  80;

WICHITA INTL   SUNNY     80  50  34 S12       29.94F
6HR MIN TEMP:  80; 6HR MAX TEMP:  83;

WICHITA JABRA  SUNNY     78  46  32 S14       29.95S
6HR MIN TEMP:  78; 6HR MAX TEMP:  82;

WINFIELD       SUNNY     78  49  35 S12       30.52R
6HR MIN TEMP:  78; 6HR MAX TEMP:  82;

$$

KSZ007>012-019>026-033>040-048>060-102>105-070100-
NORTHEAST KANSAS

CITY           SKY/WX    TMP DP  RH WIND       PRES   REMARKS
CONCORDIA      SUNNY     79  49  34 S14       29.90S
6HR MIN TEMP:  79; 6HR MAX TEMP:  83;

EMPORIA        MOSUNNY   78  50  37 S14       29.95F
6HR MIN TEMP:  78; 6HR MAX TEMP:  83;

LAWRENCE       SUNNY     78  49  35 S12       29.94F
6HR MIN TEMP:  78; 6HR MAX TEMP:  82;

MANHATTAN      MOSUNNY   80  47  31 S8        29.91F
6HR MIN TEMP:  80; 6HR MAX TEMP:  85;

OLATHE IND     SUNNY     76  52  43 S10       29.96F
6HR MIN TEMP:  76; 6HR MAX TEMP:  81;

OLATHE EXE     SUNNY     76  49  38 SW7       29.96S
6HR MIN TEMP:  74; 6HR MAX TEMP:  79;

SALINA         CLOUDY    80  51  36 S10       29.91F
6HR MIN TEMP:  80; 6HR MAX TEMP:  85;

TOPEKA BILLARD MOSUNNY   80  49  33 S10       29.93F
6HR MIN TEMP:  79; 6HR MAX TEMP:  83;

TOPEKA FORBES  MOSUNNY   79  51  37 S8        29.94F
6HR MIN TEMP:  79; 6HR MAX TEMP:  85;

$$




USA.gov is the U.S. government's official web portal to all federal, state and local government web resources and services.